Weather History for KASE - August, 2012

Change the Weather History Date:

Sunday, August 19, 2012

  Actual Average Record
Temperature  
Mean Temperature 64 °F 61 °F  
Max Temperature 83 °F 77 °F 85 °F (2013)
Min Temperature 44 °F 46 °F 40 °F (2015)
Degree Days  
Heating Degree Days 1 4  
Month to date heating degree days 25 59  
Since 1 June heating degree days 126 359  
Since 1 July heating degree days 40 130  
Cooling Degree Days 0 0  
Month to date cooling degree days 17 9  
Year to date cooling degree days 104 38  
Since 1 June cooling degree days 104 38  
Growing Degree Days 13 (Base 50)    
Moisture  
Dew Point 26 °F    
Average Humidity 30    
Maximum Humidity 49    
Minimum Humidity 10    
Precipitation  
Precipitation 0.00 in 0.04 in 0.57 in (2010)
Month to date precipitation 0.89 1.11  
Year to date precipitation 8.17 10.89  
Sea Level Pressure  
Sea Level Pressure 29.94 in    
Wind  
Wind Speed 6 mph (SW)    
Max Wind Speed 16 mph    
Max Gust Speed 23 mph    
Visibility 10 miles    
Events      
T = Trace of Precipitation, MM = Missing Value Source: NWS Daily Summary

Daily Weather History Graph

Daily Weather History Graph

Search for Another Location

Airport or City:

Trip Planner

Search our weather history database for the weather conditions in past years. The results will help you decide how hot, cold, wet, or windy it might be!

Date:

Astronomy

Aug. 19, 2012 Rise Set
Actual Time 6:24 AM MDT 7:56 PM MDT
Civil Twilight 5:56 AM MDT 8:24 PM MDT
Nautical Twilight 5:22 AM MDT 8:58 PM MDT
Astronomical Twilight 4:46 AM MDT 9:34 PM MDT
Moon 8:41 AM MDT (8/19) 8:48 PM MDT (8/19)
Length of Visible Light 14h 28m
Length of Day
13h 31m
Waxing Crescent, 5% of the Moon is Illuminated
Aug 19
Waxing Crescent
Aug 24
First Quarter
Aug 31
Full
Sep 8
Last Quarter
Sep 15
New

Hourly Weather History & Observations

Time (MDT) Temp. Windchill Dew Point Humidity Pressure Visibility Wind Dir Wind Speed Gust Speed Precip Events Conditions
12:53 AM 50.0 °F - 30.0 °F 46% 29.95 in 10.0 mi SSW 6.9 mph - N/A   Clear
1:53 AM 51.1 °F - 28.0 °F 41% 29.94 in 10.0 mi South 6.9 mph - N/A   Clear
2:53 AM 50.0 °F - 27.0 °F 41% 29.93 in 10.0 mi SSW 8.1 mph - N/A   Clear
3:53 AM 48.9 °F - 27.0 °F 43% 29.93 in 10.0 mi SSW 6.9 mph - N/A   Clear
4:53 AM 48.9 °F - 26.1 °F 41% 29.93 in 10.0 mi SSW 6.9 mph - N/A   Clear
5:53 AM 45.0 °F - 27.0 °F 49% 29.97 in 10.0 mi Calm Calm - N/A   Clear
6:53 AM 44.1 °F 41.5 °F 27.0 °F 51% 29.99 in 10.0 mi South 4.6 mph - N/A   Clear
7:53 AM 53.1 °F - 27.0 °F 37% 29.98 in 10.0 mi Calm Calm - N/A   Clear
8:53 AM 57.9 °F - 28.9 °F 33% 29.98 in 10.0 mi Calm Calm - N/A   Clear
9:53 AM 66.0 °F - 28.0 °F 24% 29.97 in 10.0 mi North 3.5 mph - N/A   Clear
10:53 AM 72.0 °F - 28.0 °F 20% 29.94 in 10.0 mi NNE 5.8 mph - N/A   Clear
11:53 AM 75.2 °F - 23.0 °F 14% 30.31 in 10.0 mi Variable 4.6 mph - N/A   Clear
12:53 PM 78.1 °F - 24.1 °F 14% 29.92 in 10.0 mi Variable 5.8 mph 20.7 mph N/A   Clear
1:53 PM 80.1 °F - 24.1 °F 13% 29.89 in 10.0 mi NNW 9.2 mph - N/A   Clear
2:53 PM 81.0 °F - 21.9 °F 11% 29.86 in 10.0 mi WSW 10.4 mph 17.3 mph N/A   Clear
3:32 PM 82.4 °F - 19.4 °F 10% 30.24 in 10.0 mi WSW 8.1 mph 17.3 mph N/A   Clear
3:53 PM 81.0 °F - 19.0 °F 10% 29.86 in 10.0 mi WNW 5.8 mph 18.4 mph N/A   Clear
4:53 PM 81.0 °F - 21.0 °F 11% 29.83 in 10.0 mi NW 10.4 mph 16.1 mph N/A   Clear
5:53 PM 80.1 °F - 24.1 °F 13% 29.83 in 10.0 mi NNW 6.9 mph - N/A   Clear
6:53 PM 77.0 °F - 24.1 °F 14% 29.84 in 10.0 mi WNW 4.6 mph - N/A   Clear
7:53 PM 68.0 °F - 32.0 °F 26% 29.86 in 10.0 mi SSE 8.1 mph - N/A   Clear
8:53 PM 60.1 °F - 33.1 °F 36% 29.90 in 10.0 mi SSW 8.1 mph - N/A   Clear
9:53 PM 62.1 °F - 30.9 °F 31% 29.88 in 10.0 mi SSW 8.1 mph - N/A   Clear
10:53 PM 57.9 °F - 30.9 °F 36% 29.88 in 10.0 mi SSW 10.4 mph - N/A   Clear
11:53 PM 57.0 °F - 30.9 °F 37% 29.86 in 10.0 mi SSW 8.1 mph - N/A   Clear